Weather History for Tacoma Narrows, WA

Change the Weather History Date:

Thursday, January 10, 2013

  Actual Average Record
Temperature  
Mean Temperature 35 °F -  
Max Temperature 37 °F 43 °F 55 °F (2002)
Min Temperature 33 °F 36 °F 28 °F (1998)
Degree Days  
Heating Degree Days 30    
Moisture  
Dew Point 32 °F    
Average Humidity 86    
Maximum Humidity 93    
Minimum Humidity 79    
Precipitation  
Precipitation 0.02 in - - ()
Sea Level Pressure  
Sea Level Pressure 30.05 in    
Wind  
Wind Speed 5 mph (SW)    
Max Wind Speed 9 mph    
Max Gust Speed -    
Visibility 10 miles    
Events Rain    
Averages and records for this station are not official NWS values.
T = Trace of Precipitation, MM = Missing Value Source: NWS Daily Summary

Daily Weather History Graph

Daily Weather History Graph

Search for Another Location

Airport:

Trip Planner

Search our weather history database for the weather conditions in past years. The results will help you decide how hot, cold, wet, or windy it might be!

Date:

Astronomy

Jan. 10, 2013 Rise Set
Actual Time 7:55 AM PST 4:41 PM PST
Civil Twilight 7:20 AM PST 5:16 PM PST
Nautical Twilight 6:41 AM PST 5:54 PM PST
Astronomical Twilight 6:05 AM PST 6:31 PM PST
Moon 6:39 AM PST (1/10) 3:56 PM PST (1/10)
Length of Visible Light 9h 55m
Length of Day
8h 46m
Waning Crescent, 1% of the Moon is Illuminated
Jan 10
Waning Crescent
Jan 11
New
Jan 18
First Quarter
Jan 26
Full
Feb 3
Last Quarter

Hourly Weather History & Observations

Time (PST) Temp. Windchill Dew Point Humidity Pressure Visibility Wind Dir Wind Speed Gust Speed Precip Events Conditions
12:14 AM 35.6 °F 29.9 °F 32.0 °F 87% 29.95 in 10.0 mi SSW 6.9 mph - N/A   Overcast
12:53 AM 36.0 °F 29.0 °F 32.0 °F 86% 29.96 in 10.0 mi SSW 9.2 mph - N/A   Overcast
1:45 AM 35.6 °F 29.9 °F 32.0 °F 87% 29.96 in 10.0 mi SSW 6.9 mph - N/A   Overcast
1:53 AM 36.0 °F 30.3 °F 32.0 °F 86% 29.98 in 10.0 mi SSW 6.9 mph - N/A   Overcast
2:15 AM 35.6 °F 31.7 °F 30.2 °F 81% 29.97 in 10.0 mi SSW 4.6 mph - N/A   Scattered Clouds
2:53 AM 34.0 °F 27.2 °F 30.9 °F 89% 29.98 in 10.0 mi SSW 8.1 mph - N/A   Partly Cloudy
3:20 AM 35.6 °F 29.9 °F 32.0 °F 87% 29.98 in 10.0 mi SSW 6.9 mph - N/A   Mostly Cloudy
3:53 AM 35.1 °F 31.0 °F 32.0 °F 89% 29.99 in 10.0 mi South 4.6 mph - N/A   Overcast
4:13 AM 35.6 °F 31.7 °F 32.0 °F 87% 29.98 in 10.0 mi South 4.6 mph - N/A   Overcast
4:45 AM 35.6 °F 31.7 °F 32.0 °F 87% 29.99 in 10.0 mi South 4.6 mph - N/A   Overcast
4:53 AM 35.1 °F 32.2 °F 32.0 °F 89% 30.00 in 10.0 mi South 3.5 mph - N/A   Overcast
5:04 AM 35.6 °F 32.8 °F 32.0 °F 87% 29.99 in 10.0 mi SSW 3.5 mph - N/A   Overcast
5:53 AM 36.0 °F 33.3 °F 33.1 °F 89% 30.01 in 10.0 mi South 3.5 mph - N/A   Overcast
6:53 AM 35.6 °F 31.7 °F 32.0 °F 87% 30.02 in 10.0 mi SW 4.6 mph - N/A   Overcast
7:53 AM 36.0 °F 32.1 °F 32.0 °F 86% 30.06 in 10.0 mi SW 4.6 mph - N/A   Overcast
8:53 AM 36.0 °F 33.3 °F 33.1 °F 89% 30.09 in 10.0 mi West 3.5 mph - N/A   Overcast
9:53 AM 37.0 °F - 33.1 °F 86% 30.09 in 10.0 mi Calm Calm - N/A   Overcast
9:54 AM 37.0 °F - 33.1 °F 86% 30.09 in 10.0 mi Calm Calm - N/A   Overcast
10:04 AM 35.6 °F 32.8 °F 33.8 °F 93% 30.08 in 10.0 mi NW 3.5 mph - N/A   Overcast
10:53 AM 37.0 °F 34.5 °F 33.1 °F 86% 30.09 in 10.0 mi WSW 3.5 mph - N/A   Overcast
11:16 AM 37.4 °F 33.8 °F 32.0 °F 81% 30.08 in 10.0 mi Variable 4.6 mph - N/A   Overcast
11:53 AM 37.0 °F 34.5 °F 32.0 °F 82% 30.09 in 10.0 mi WNW 3.5 mph - N/A   Overcast
12:53 PM 37.9 °F 33.5 °F 32.0 °F 79% 30.07 in 10.0 mi WSW 5.8 mph - N/A   Overcast
1:53 PM 37.9 °F 34.4 °F 32.0 °F 79% 30.09 in 10.0 mi WSW 4.6 mph - N/A   Overcast
2:53 PM 37.9 °F - 33.1 °F 83% 30.09 in 8.0 mi Calm Calm - 0.01 in Rain Light Rain
3:53 PM 37.0 °F - 34.0 °F 89% 30.10 in 7.0 mi Calm Calm - 0.00 in Rain Light Rain
4:53 PM 37.0 °F 34.5 °F 32.0 °F 82% 30.10 in 10.0 mi NW 3.5 mph - 0.01 in   Overcast
4:58 PM 37.4 °F 34.9 °F 32.0 °F 81% 30.09 in 10.0 mi West 3.5 mph - N/A   Overcast
5:53 PM 36.0 °F 32.1 °F 32.0 °F 86% 30.10 in 10.0 mi NW 4.6 mph - 0.00 in   Overcast
6:53 PM 36.0 °F - 30.9 °F 82% 30.10 in 10.0 mi Calm Calm - N/A   Overcast
7:53 PM 35.1 °F 29.3 °F 30.9 °F 85% 30.11 in 10.0 mi WNW 6.9 mph - 0.00 in   Overcast
8:43 PM 33.8 °F - 32.0 °F 93% 30.09 in 10.0 mi Calm Calm - 0.00 in   Overcast
8:53 PM 34.0 °F - 32.0 °F 92% 30.11 in 10.0 mi Calm Calm - 0.00 in   Overcast
9:53 PM 34.0 °F - 30.9 °F 89% 30.11 in 10.0 mi Calm Calm - N/A   Overcast
10:53 PM 34.0 °F 31.0 °F 32.0 °F 92% 30.12 in 10.0 mi NW 3.5 mph - N/A   Overcast
11:53 PM 34.0 °F - 30.0 °F 85% 30.13 in 10.0 mi Calm Calm - N/A   Overcast